Regional Weather Roundup
Issued by NWS

Home | Current Version | Previous Version | Text Only | Print | Product List | Glossary Off
Versions: 1 2 3 4 5 6 7 8 9 10 11 12 13 14 15 16 17 18 19 20 21 22 23 24 25 26 27 28 29 30 31 32 33 34 35 36 37 38 39 40 41 42 43 44 45 46 47 48 49 50

000
ASUS43 KFSD 191402
RWRSD

WEATHER ROUNDUP FOR SOUTH DAKOTA
NATIONAL WEATHER SERVICE SIOUX FALLS SD
900 AM CDT FRI SEP 19 2014

NOTE: "FAIR" INDICATES FEW OR NO CLOUDS BELOW 12,000 FEET WITH NO
SIGNIFICANT WEATHER AND/OR OBSTRUCTIONS TO VISIBILITY.


SDZ001>005-009-010-012>017-191500-
NORTHWEST AND NORTH CENTRAL SOUTH DAKOTA

CITY           SKY/WX    TMP DP  RH WIND       PRES   REMARKS
FAITH            N/A     64  57  78 W10       29.74R
MOBRIDGE       PTSUNNY   63  63 100 S8        29.64S
$$

SDZ012>016-024>037-041>051-057-063-072>074-191500-
SOUTHWEST AND SOUTH CENTRAL SOUTH DAKOTA

CITY           SKY/WX    TMP DP  RH WIND       PRES   REMARKS
RAPID CTY ARPT PTSUNNY   66  52  60 SW3       29.81R
PIERRE         PTSUNNY   64  61  90 W5        29.66R
CUSTER         PTSUNNY   62  46  55 W5        29.96R
ELLSWORTH AFB  PTSUNNY   69  53  56 VRB1      29.81R
PHILIP         CLOUDY    65  59  81 W7        29.74S
PINE RIDGE     MOSUNNY   58  56  93 NW3       29.83S
WINNER         FAIR      68  61  78 SW15      29.71S
$$

SDZ004>011-016>023-039-040-191500-
NORTHEAST SOUTH DAKOTA

CITY           SKY/WX    TMP DP  RH WIND       PRES   REMARKS
ABERDEEN       CLOUDY    62  60  93 SE9       29.65F FOG
WATERTOWN      CLOUDY    61  60  97 S17G25    29.70F FOG
SISSETON         N/A     65  62  90 SW12G18   29.68R
$$

SDZ017-020-022-023-036>040-048>070-191500-
SOUTHEAST SOUTH DAKOTA

CITY           SKY/WX    TMP DP  RH WIND       PRES   REMARKS
SIOUX FALLS    CLOUDY    65  62  90 S15       29.79F
HURON          CLOUDY    66  62  87 S13G22    29.68S
CHAMBERLAIN    MOSUNNY   65  62  89 S10       29.68S
MITCHELL       MOSUNNY   68  64  87 S17G24    29.70F
YANKTON        MOSUNNY   68  63  83 S14G21    29.78F
$$

ABBREVIATIONS USED IN REMARKS
   TC - TEMPERATURE IN CELSIUS
  WCI - WIND CHILL INDEX
   HX - HEAT INDEX
  VSB - VISIBILITY



USA.gov is the U.S. government's official web portal to all federal, state and local government web resources and services.